This is the latest recevied weather packets stored in our database for station/object DB0FN-10. If no packets are shown the sender has not sent any weather packets the latest 10 day(s).
| Time | Temp. | Humidity | Pressure | Rain* | Wind** | Luminosity | Snow |
|---|---|---|---|---|---|---|---|
| 1777376743 | 21.67° C | 30% | 1019.6 hPa | - | - | - | - |
| 1777375843 | 22.22° C | 30% | 1019.6 hPa | - | - | - | - |
| 1777374941 | 22.22° C | 32% | 1019.7 hPa | - | - | - | - |
| 1777374041 | 21.67° C | 30% | 1019.8 hPa | - | - | - | - |
| 1777373141 | 22.78° C | 31% | 1019.7 hPa | - | - | - | - |
| 1777372240 | 21.67° C | 29% | 1019.7 hPa | - | - | - | - |
| 1777371340 | 21.67° C | 31% | 1019.8 hPa | - | - | - | - |
| 1777370440 | 21.11° C | 34% | 1019.7 hPa | - | - | - | - |
| 1777369540 | 20.56° C | 32% | 1019.9 hPa | - | - | - | - |
| 1777368640 | 20.56° C | 34% | 1019.8 hPa | - | - | - | - |
| 1777367740 | 20° C | 35% | 1020 hPa | - | - | - | - |
| 1777366840 | 20° C | 35% | 1019.9 hPa | - | - | - | - |
| 1777365940 | 19.44° C | 34% | 1020 hPa | - | - | - | - |
| 1777365039 | 19.44° C | 35% | 1019.9 hPa | - | - | - | - |
| 1777364139 | 19.44° C | 34% | 1019.8 hPa | - | - | - | - |
| 1777363240 | 18.89° C | 35% | 1019.7 hPa | - | - | - | - |
| 1777362339 | 17.78° C | 36% | 1019.6 hPa | - | - | - | - |
| 1777361439 | 17.22° C | 35% | 1019.6 hPa | - | - | - | - |
| 1777360538 | 18.89° C | 32% | 1019.7 hPa | - | - | - | - |
| 1777359638 | 18.33° C | 33% | 1019.7 hPa | - | - | - | - |
| 1777358738 | 17.22° C | 33% | 1019.6 hPa | - | - | - | - |
| 1777357838 | 16.67° C | 34% | 1019.7 hPa | - | - | - | - |
| 1777356938 | 17.22° C | 34% | 1019.8 hPa | - | - | - | - |
| 1777356038 | 16.67° C | 34% | 1019.7 hPa | - | - | - | - |
| 1777355138 | 16.67° C | 34% | 1019.8 hPa | - | - | - | - |
* Rain since midnight (hover to see other rain measurements)
** Current wind speed in m/s (hover to see current wind gust speed)